User: anonymous   Login
Location: Unspecified
(0.0000°N, 0.0000°E)
Time: 16:23:11
(UTC+00:00)
Language:

ESSA 9 - Orbit

View from above orbital plane
View from above orbital plane
View from above satellite
View from above satellite

Ground track
Ground track

The orbit data is extracted from the following two-line orbital elements,

1  3764U 69016A   19015.82686818 -.00000056 +00000-0 -77896-4 0  9999
2  3764 101.7059 077.1484 0050651 315.5879 158.4556 12.49835824649347
Epoch (UTC): 15 January 2019 19:50:41
Eccentricity: 0.0050651
inclination: 101.7059°
perigee height: 1425 km
apogee height: 1505 km
right ascension of ascending node: 77.1484°
argument of perigee: 315.5879°
revolutions per day: 12.49835824
mean anomaly at epoch: 158.4556°
orbit number at epoch: 64934

The dashed part of the orbit path shows where the satellite is in the earth's shadow,  

DLR